Regional Weather Roundup
Issued by NWS

Home | Current Version | Previous Version | Text Only | Print | Product List | Glossary Off
Versions: 1 2 3 4 5 6 7 8 9 10 11 12 13 14 15 16 17 18 19 20 21 22 23 24 25 26 27 28 29 30 31 32 33 34 35 36 37 38 39 40 41 42 43 44 45 46 47 48 49 50

000
ASUS43 KBIS 230320
RWRND

NORTH DAKOTA REGIONAL WEATHER ROUNDUP
NATIONAL WEATHER SERVICE BISMARCK ND
1000 PM CDT WED OCT 22 2014

NOTE: "FAIR" INDICATES FEW OR NO CLOUDS BELOW 12,000 FEET WITH NO
SIGNIFICANT WEATHER AND/OR OBSTRUCTIONS TO VISIBILITY.


NDZ001>003-009>011-017-230400-
NORTHWEST NORTH DAKOTA

CITY           SKY/WX    TMP DP  RH WIND       PRES   REMARKS
WILLISTON      CLEAR     52  33  48 W13       29.87R
MINOT          CLOUDY    55  42  61 SW7       29.83R
MINOT AFB      PTCLDY    50  43  78 SW7       29.82R
$$

NDZ018>021-031>035-040>046-230400-
SOUTHWEST NORTH DAKOTA

CITY           SKY/WX    TMP DP  RH WIND       PRES   REMARKS
BISMARCK       CLEAR     48  38  68 SW3       29.92R
DICKINSON      CLEAR     45  32  60 W7        29.92R
GARRISON         N/A     45  40  82 W6        29.87R
HETTINGER ARPT CLEAR     40  28  62 CALM      29.97R
$$

NDZ004>008-012>016-024-026-027-054-230400-
NORTHEAST NORTH DAKOTA

CITY           SKY/WX    TMP DP  RH WIND       PRES   REMARKS
GRAND FORKS    CLOUDY    52  49  89 S9        29.84S
GRND FRKS AFB  PTCLDY    52  51  99 SW9       29.85R
DEVILS LAKE    CLOUDY    55  41  58 SW9       29.82R
$$

NDZ022-023-025-028>030-036>039-047>053-230400-
SOUTHEAST NORTH DAKOTA

CITY           SKY/WX    TMP DP  RH WIND       PRES   REMARKS
FARGO          CLOUDY    54  51  90 SW8       29.89S
JAMESTOWN      CLEAR     48  43  82 SW5       29.88R
$$




USA.gov is the U.S. government's official web portal to all federal, state and local government web resources and services.